DECAYED
Showing default

USA 320, 51075 (Decayed)

Orbit data source: Space-Track

USA 320, 51075 was a payload satellite owned by NRO (US) in LEO that was launched on Thu, 13 Jan 2022 UTC via an FALCON 9 launch vehicle from the Air Force Eastern Test Range (AFETR). Payload-class satellites include a variety of spacecraft equipped with specific instruments for various scientific and technological missions. These include communications satellites like Starlink; space stations such as the ISS; scientific satellites like the Hubble; Earth observation satellites from companies like Planet Labs, Umbra, and HawkEye 360; GPS; miniature CubeSats for education and research; and military/defense satellites.

Not visible in the next 10 days
Identifier
51075, 2022-002CV
Orbit
Decayed
Last TLE update
7 months ago
Origin
Manufacturer
SPXS?
Mission
Decayed Defense Sigint
Bus & Motor
STARLINK?, Unknown motor
Mass
300 kg wet, ~280 kg dry
Launch date (UTC)
2022-01-13 (3 years ago)
Launch vehicle
FALCON 9
Launch site
Air Force Eastern Test Range (AFETR)
Object type
Payload
Rocket body
Debris
Shape & HBR
Box + 1 Pan, 9 m
Radar Cross Section
11.087 m², Large (>1 m²)

Expand to show TLE details & history

TLE from 7 months ago
0 USA 320
1 51075U 22002CV  24333.48886079  .11094112  25414-5  23303-2 0  9992
2 51075  97.3686  41.8129 0006037 233.9118 260.4753 16.30954062159623
Epoch: 2024-11-28T11:43Z
TLE epoch observation values (Epoch: 2024-11-28T11:43:57.572Z)
Latitude
45.3026°
Longitude
-14.58002°
Altitude
197.656 km
Speed
7.792 km/s
True Right ascension
15h 17m 07s
True Declination
45° 06' 58"
Sunlit
Object was in daylight at epoch
Visualization orbit readout
Visualization observer readout
Orbital elements
Apogee altitude
190.758 km
Perigee altitude
182.832 km
Semi-major axis
6,564.932 km
Eccentricity
0.0006
Inclination
97.3686°
RAAN
41.8129°
Arg. of periapsis
233.9118°
True anomaly
Unknown
Mean anomaly
260.4753°
Eccentric anomaly
Unknown
Mean motion
4.08035 °/min
Orbital period
88.23 mins
BSTAR
0.0023303
Loading maneuver chart data...
Loading SW <> Apogee altitude chart data...

USA 320 Visibility

Observer location: undefined°, undefined°

This satellite is decayed
Span
Click to sort rows by Start time (UTC) header in descending order
Start Az.
Max El. time (UTC)
Max El. Az.
Max El.
End time (UTC)
End Az.
|